Weather History for Arlington, WA

Change the Weather History Date:

Friday, May 17, 2013

  Actual Average Record
Temperature  
Mean Temperature 56 °F -  
Max Temperature 60 °F 59 °F 89 °F (2008)
Min Temperature 51 °F 46 °F 37 °F (2003)
Degree Days  
Heating Degree Days 10    
Growing Degree Days 6 (Base 50)    
Moisture  
Dew Point 49 °F    
Average Humidity 79    
Maximum Humidity 94    
Minimum Humidity 63    
Precipitation  
Precipitation 0.00 in - - ()
Sea Level Pressure  
Sea Level Pressure 30.01 in    
Wind  
Wind Speed 5 mph (SE)    
Max Wind Speed 14 mph    
Max Gust Speed -    
Visibility 10 miles    
Events      
Averages and records for this station are not official NWS values.
T = Trace of Precipitation, MM = Missing Value Source: NWS Daily Summary

Daily Weather History Graph

Daily Weather History Graph

Search for Another Location

Airport:

Trip Planner

Search our weather history database for the weather conditions in past years. The results will help you decide how hot, cold, wet, or windy it might be!

Date:

Astronomy

May. 17, 2013 Rise Set
Actual Time 5:26 AM PDT 8:44 PM PDT
Civil Twilight 4:48 AM PDT 9:22 PM PDT
Nautical Twilight 3:59 AM PDT 10:12 PM PDT
Astronomical Twilight 2:56 AM PDT 11:16 PM PDT
Moon 12:18 PM PDT (5/17) 1:27 AM PDT (5/17)
Length of Visible Light 16h 33m
Length of Day
15h 18m
Waxing Crescent, 46% of the Moon is Illuminated
May 17
Waxing Crescent
May 17
First Quarter
May 24
Full
May 31
Last Quarter
Jun 8
New

Hourly Weather History & Observations

Time (PDT) Temp. Dew Point Humidity Pressure Visibility Wind Dir Wind Speed Gust Speed Precip Events Conditions
12:15 AM 51.8 °F 48.2 °F 88% 29.97 in 10.0 mi Calm Calm - N/A   Unknown
12:35 AM 53.6 °F 48.2 °F 82% 29.97 in 10.0 mi Calm Calm - N/A   Unknown
12:55 AM 51.8 °F 48.2 °F 88% 29.97 in 10.0 mi Calm Calm - N/A   Unknown
1:15 AM 53.6 °F 48.2 °F 82% 29.96 in 10.0 mi Calm Calm - N/A   Unknown
1:35 AM 51.8 °F 48.2 °F 88% 29.96 in 10.0 mi WNW 3.5 mph - N/A   Unknown
1:55 AM 51.8 °F 48.2 °F 88% 29.97 in 10.0 mi Calm Calm - N/A   Unknown
2:15 AM 51.8 °F 48.2 °F 88% 29.96 in 10.0 mi Calm Calm - N/A   Unknown
2:35 AM 51.8 °F 48.2 °F 88% 29.96 in 2.5 mi Calm Calm - N/A   Unknown
2:55 AM 51.8 °F 48.2 °F 88% 29.97 in 9.0 mi North - - N/A   Unknown
3:15 AM 51.8 °F 48.2 °F 88% 29.97 in 10.0 mi North 3.5 mph - N/A   Unknown
3:35 AM 51.8 °F 48.2 °F 88% 29.97 in 10.0 mi Calm Calm - N/A   Unknown
3:55 AM 51.8 °F 48.2 °F 88% 29.97 in 10.0 mi Calm Calm - N/A   Unknown
4:15 AM 51.8 °F 48.2 °F 88% 29.97 in 10.0 mi Calm Calm - N/A   Unknown
4:35 AM 53.6 °F 48.2 °F 82% 29.98 in 8.0 mi SSE 6.9 mph - N/A   Unknown
5:15 AM 53.6 °F 48.2 °F 82% 29.98 in 10.0 mi SE 8.1 mph - N/A   Unknown
5:35 AM 53.6 °F 48.2 °F 82% 29.98 in 9.0 mi SE 10.4 mph - N/A   Unknown
5:55 AM 51.8 °F 50.0 °F 94% 29.98 in 3.0 mi SE 8.1 mph - N/A   Unknown
6:15 AM 53.6 °F 50.0 °F 88% 29.98 in 8.0 mi SE 6.9 mph - N/A   Unknown
6:35 AM 53.6 °F 50.0 °F 88% 29.98 in 10.0 mi SE 8.1 mph - N/A   Unknown
6:55 AM 53.6 °F 50.0 °F 88% 29.99 in 10.0 mi SE 8.1 mph - N/A   Unknown
7:15 AM 53.6 °F 50.0 °F 88% 29.99 in 10.0 mi SE 9.2 mph - N/A   Unknown
7:35 AM 53.6 °F 50.0 °F 88% 29.99 in 10.0 mi SE 8.1 mph - N/A   Unknown
7:55 AM 53.6 °F 50.0 °F 88% 30.00 in 10.0 mi SE 8.1 mph - N/A   Unknown
8:15 AM 53.6 °F 50.0 °F 88% 30.00 in 10.0 mi SE 9.2 mph - N/A   Unknown
8:35 AM 53.6 °F 50.0 °F 88% 30.00 in 10.0 mi SE 9.2 mph - N/A   Unknown
8:55 AM 53.6 °F 50.0 °F 88% 30.00 in 10.0 mi SE 10.4 mph - N/A   Unknown
9:15 AM 55.4 °F 50.0 °F 82% 30.00 in 10.0 mi SE 9.2 mph - N/A   Unknown
9:35 AM 55.4 °F 50.0 °F 82% 30.00 in 10.0 mi SE 6.9 mph - N/A   Unknown
9:55 AM 55.4 °F 50.0 °F 82% 30.00 in 10.0 mi SSE 6.9 mph - N/A   Unknown
10:15 AM 55.4 °F 48.2 °F 77% 30.00 in 10.0 mi SSE 8.1 mph - N/A   Unknown
10:35 AM 57.2 °F 50.0 °F 77% 30.01 in 10.0 mi South 9.2 mph - N/A   Unknown
10:55 AM 57.2 °F 48.2 °F 72% 30.01 in 10.0 mi South 11.5 mph - N/A   Unknown
11:15 AM 59.0 °F 48.2 °F 67% 30.01 in 10.0 mi SSE 13.8 mph - N/A   Unknown
11:35 AM 57.2 °F 48.2 °F 72% 30.01 in 10.0 mi South 8.1 mph - N/A   Unknown
12:15 PM 57.2 °F 46.4 °F 67% 30.01 in 10.0 mi South 10.4 mph - N/A   Unknown
12:35 PM 57.2 °F 48.2 °F 72% 30.01 in 10.0 mi South 11.5 mph - N/A   Unknown
12:55 PM 57.2 °F 46.4 °F 67% 30.02 in 10.0 mi South 10.4 mph - N/A   Unknown
1:15 PM 57.2 °F 48.2 °F 72% 30.02 in 10.0 mi South 8.1 mph - N/A   Unknown
1:35 PM 57.2 °F 48.2 °F 72% 30.02 in 10.0 mi SE 8.1 mph - N/A   Unknown
1:55 PM 57.2 °F 51.8 °F 82% 30.02 in 10.0 mi SE 9.2 mph - N/A   Unknown
2:15 PM 55.4 °F 51.8 °F 88% 30.02 in 10.0 mi SE 10.4 mph - N/A   Unknown
2:35 PM 57.2 °F 51.8 °F 82% 30.02 in 10.0 mi ESE 8.1 mph - N/A   Unknown
2:55 PM 57.2 °F 51.8 °F 82% 30.02 in 10.0 mi SE 8.1 mph - N/A   Unknown
3:15 PM 57.2 °F 51.8 °F 82% 30.02 in 10.0 mi ESE 8.1 mph - N/A   Unknown
3:35 PM 57.2 °F 51.8 °F 82% 30.02 in 10.0 mi SE 11.5 mph - N/A   Unknown
3:55 PM 59.0 °F 50.0 °F 72% 30.01 in 10.0 mi ESE 8.1 mph - N/A   Unknown
4:15 PM 59.0 °F 50.0 °F 72% 30.01 in 10.0 mi ESE 8.1 mph - N/A   Unknown
4:35 PM 59.0 °F 50.0 °F 72% 30.01 in 10.0 mi SE 8.1 mph - N/A   Unknown
4:55 PM 60.8 °F 50.0 °F 68% 30.01 in 10.0 mi SE 9.2 mph - N/A   Unknown
5:15 PM 59.0 °F 48.2 °F 67% 30.02 in 10.0 mi ESE 11.5 mph - N/A   Unknown
5:35 PM 59.0 °F 48.2 °F 67% 30.02 in 10.0 mi ESE 8.1 mph - N/A   Unknown
5:55 PM 59.0 °F 48.2 °F 67% 30.02 in 10.0 mi ESE 8.1 mph - N/A   Unknown
6:15 PM 59.0 °F 48.2 °F 67% 30.02 in 10.0 mi SE 8.1 mph - N/A   Unknown
6:35 PM 60.8 °F 48.2 °F 63% 30.02 in 10.0 mi ESE 8.1 mph - N/A   Unknown
6:55 PM 59.0 °F 46.4 °F 63% 30.02 in 10.0 mi ESE 9.2 mph - N/A   Unknown
7:15 PM 59.0 °F 46.4 °F 63% 30.02 in 10.0 mi East 6.9 mph - N/A   Unknown
7:35 PM 59.0 °F 46.4 °F 63% 30.02 in 10.0 mi ESE 6.9 mph - N/A   Unknown
7:55 PM 57.2 °F 46.4 °F 67% 30.02 in 10.0 mi East 4.6 mph - N/A   Unknown
8:15 PM 57.2 °F 46.4 °F 67% 30.02 in 10.0 mi ESE 4.6 mph - N/A   Unknown
8:35 PM 57.2 °F 44.6 °F 63% 30.03 in 10.0 mi East 4.6 mph - N/A   Unknown
8:55 PM 57.2 °F 44.6 °F 63% 30.03 in 10.0 mi East 4.6 mph - N/A   Unknown
9:15 PM 57.2 °F 44.6 °F 63% 30.03 in 10.0 mi Calm Calm - N/A   Unknown
9:35 PM 57.2 °F 46.4 °F 67% 30.04 in 10.0 mi Calm Calm - N/A   Unknown
9:55 PM 55.4 °F 46.4 °F 72% 30.05 in 10.0 mi Calm Calm - N/A   Unknown
10:15 PM 55.4 °F 46.4 °F 72% 30.05 in 10.0 mi Calm Calm - N/A   Unknown
10:35 PM 53.6 °F 48.2 °F 82% 30.05 in 10.0 mi Calm Calm - N/A   Unknown
10:55 PM 53.6 °F 50.0 °F 88% 30.06 in 10.0 mi Calm Calm - N/A   Unknown
11:15 PM 53.6 °F 50.0 °F 88% 30.06 in 10.0 mi Calm Calm - N/A   Unknown
11:35 PM 53.6 °F 51.8 °F 94% 30.06 in 10.0 mi Calm Calm - N/A   Unknown
11:55 PM 53.6 °F 51.8 °F 94% 30.07 in 10.0 mi Calm Calm - N/A   Unknown